RH
73 74 85 52 44 53 50 36 30 19 20 15 16 19 34 60 56 74 63 73 81 88 83 84 88 87 87 86 86 83 83 82 81 79 76 77 80 80 78 77 75 73 74 74 72 71 67 65 67
81 64 63 54 56 52 35 33 21 20 18 14 14 18 34 77 72 72 88 79 80 83 81 84 88 88 88 86 84 83 80 80 80 78 78 80 80 78 77 77 76 76 77 77 75 71 72 71 71
74 70 51 55 60 44 35 24 20 18 17 14 18 19 44 78 65 66 75 76 78 82 81 85 89 89 87 85 83 82 80 79 81 83 81 84 80 78 75 76 80 83 84 81 77 76 77 76 75
84 48 53 68 53 34 23 20 17 17 18 15 20 27 70 61 58 68 69 73 80 83 82 90 89 87 86 85 83 82 84 81 83 84 83 83 81 76 77 81 86 87 84 81 77 77 75 76 73
82 66 70 76 60 37 24 15 14 15 21 20 18 48 81 65 61 64 71 72 78 86 87 88 88 87 86 85 84 84 84 85 83 83 82 80 78 78 80 85 87 87 84 81 76 71 70 75 74
96 66 68 55 43 35 29 20 17 15 13 20 22 74 78 68 64 64 67 71 80 88 87 86 88 88 87 86 86 84 85 85 83 82 82 80 78 80 81 86 87 86 84 80 76 73 73 74 74
84 82 68 56 40 28 23 18 18 15 14 14 19 54 81 76 62 61 63 71 85 86 88 88 88 87 90 89 86 85 86 83 82 82 83 84 84 85 83 86 86 85 83 79 78 76 74 74 76
86 84 85 60 46 41 22 18 14 13 13 13 18 83 90 78 69 64 78 82 85 89 89 89 90 89 89 87 88 86 88 87 86 86 90 91 90 88 89 89 88 86 83 80 77 77 75 73 76
72 98 80 75 49 36 24 23 17 12 12 11 16 45 64 65 69 71 88 88 88 90 90 89 90 91 88 85 90 91 90 91 91 91 93 92 89 88 86 90 89 85 81 79 80 77 77 77 78
87 88 68 56 48 40 25 23 22 19 18 17 86 73 67 69 77 82 91 93 93 93 91 89 90 89 87 80 89 89 85 84 84 80 81 83 86 83 85 88 90 88 85 83 79 78 76 73 68
86 89 58 52 50 48 43 31 22 18 23 19 92 90 79 76 85 85 86 87 88 87 86 89 88 86 83 88 91 89 78 80 78 78 75 84 81 75 73 72 82 91 93 92 89 87 78 62 60
85 64 59 61 57 62 54 53 32 25 19 16 88 85 84 84 89 88 89 87 89 89 84 86 87 83 84 86 88 86 72 71 73 77 76 71 71 68 67 75 86 85 86 89 90 83 64 60 62
67 59 50 49 54 61 58 59 55 34 28 25 56 89 90 86 82 83 83 84 86 87 85 83 85 85 82 83 84 82 72 69 68 74 70 72 68 66 70 68 82 78 75 75 75 68 63 58 60
52 64 62 54 47 51 67 69 51 36 29 24 26 90 89 87 80 82 88 87 87 82 84 80 82 84 79 81 77 75 75 73 74 64 66 66 66 70 68 76 74 75 71 72 69 68 67 68 59
58 86 79 64 55 57 56 79 70 40 33 32 28 52 83 89 88 86 84 84 84 80 80 82 83 84 78 79 73 72 70 76 74 60 59 61 61 68 63 75 69 73 68 69 67 67 67 67 61
49 65 93 56 57 53 76 83 59 40 36 38 34 29 83 85 88 85 83 83 83 83 84 83 82 84 83 75 79 66 67 75 71 62 58 60 58 64 65 66 66 71 72 72 68 70 74 74 68
81 85 70 63 52 62 73 86 60 48 36 37 36 33 46 89 87 86 83 84 87 82 84 87 87 85 86 83 86 77 70 67 73 65 64 63 60 64 62 68 73 71 74 73 64 78 74 79 76
94 90 84 85 70 61 69 78 64 54 44 38 37 34 37 71 82 82 89 86 88 86 87 86 87 86 86 86 90 83 84 83 74 69 66 63 65 67 67 73 72 67 72 78 74 75 78 79 77
96 96 93 74 56 95 81 70 67 57 52 46 40 39 55 95 99 98 98 96 92 93 94 88 88 89 88 87 88 83 82 84 78 70 66 66 66 68 71 74 75 71 71 76 72 80 78 84 82
70 85 87 71 54 78 94 86 60 54 58 67 47 95 95 94 94 95 97 98 99 96 89 92 88 89 85 86 85 81 75 88 79 80 69 63 68 75 70 73 77 75 76 77 77 80 87 83 80
69 93 79 82 61 68 70 95 66 54 78 84 90 89 90 94 96 95 95 97 98 98 97 93 90 89 87 83 89 88 84 88 88 83 79 73 72 78 72 76 77 78 79 78 80 82 80 81 90
82 58 70 74 88 97 95 95 68 57 92 90 91 94 95 94 89 91 95 96 97 98 97 98 95 92 91 88 88 89 88 88 78 74 80 80 74 76 79 79 77 80 82 82 83 80 84 84 91
75 52 63 75 92 96 83 95 82 71 91 90 91 91 90 89 90 90 91 92 92 95 97 97 98 94 93 92 88 90 89 79 80 81 88 80 81 78 79 78 83 80 78 81 82 84 86 85 91
50 64 69 82 95 98 75 94 90 90 93 90 86 82 85 87 88 87 84 82 90 92 94 94 96 96 95 94 89 91 89 83 89 87 86 87 87 88 83 82 83 82 81 82 78 78 81 84 86
72 89 98 98 99 90 56 92 96 95 94 93 92 87 86 87 88 91 91 91 90 92 95 93 94 96 98 94 93 88 88 86 84 88 84 88 91 90 88 82 86 85 86 81 80 81 83 87 89
93 98 98 100 100 83 74 96 94 95 94 93 92 92 80 88 88 90 90 90 92 93 93 97 95 95 95 97 96 89 87 86 82 83 84 83 89 87 88 82 82 87 87 81 79 87 88 89 91
89 97 89 98 93 94 96 96 87 90 92 93 93 88 90 88 90 92 91 90 92 92 93 97 99 95 94 95 97 98 90 88 84 80 81 84 84 90 90 85 84 84 84 85 87 87 86 89 93
80 86 90 95 99 98 97 96 95 93 93 93 93 94 93 89 90 92 92 92 90 94 94 91 95 97 95 93 93 95 98 90 86 82 82 82 82 88 89 87 86 88 87 85 83 87 83 86 93
90 95 93 95 96 98 97 99 96 96 95 94 95 94 94 93 92 94 94 92 92 92 93 93 92 98 96 93 92 95 96 98 93 87 84 83 85 88 89 88 86 86 87 88 87 87 88 87 92
97 98 100 98 97 97 97 100 96 95 95 93 94 94 94 94 94 93 94 94 93 95 90 94 92 93 97 94 91 94 94 94 98 98 97 90 90 90 90 87 86 83 89 90 90 91 92 90 93
Wind_Speed
8 6 2 4 3 4 5 9 4 13 6 6 1 5 10 3 10 6 11 17 22 17 17 18 22 22 21 21 19 19 19 17 16 17 18 19 22 24 24 22 22 20 22 23 23 23 23 21 20
5 5 2 2 4 4 7 6 12 12 7 6 6 5 7 3 3 9 12 20 22 18 16 17 22 22 21 21 20 20 18 17 16 16 17 19 22 23 22 21 21 21 23 23 22 22 20 18 18
9 4 3 5 5 9 7 7 16 10 10 5 3 4 4 5 5 7 17 22 21 18 16 17 22 23 22 21 21 20 18 17 15 16 18 21 22 23 23 22 21 21 21 21 20 20 18 17 15
3 3 4 4 11 8 9 5 7 7 2 4 7 7 4 7 13 11 22 23 21 16 16 20 23 23 22 22 21 20 18 18 17 18 19 20 22 22 22 20 19 20 21 20 20 19 17 16 16
1 0 4 6 11 7 7 15 14 5 3 5 5 6 8 6 10 24 21 20 21 18 16 17 23 24 23 22 21 19 18 17 19 20 21 21 22 22 21 19 18 20 21 20 20 18 17 16 20
3 3 4 14 11 12 10 8 5 8 6 5 3 7 5 8 21 18 19 19 18 19 16 17 21 23 23 22 21 19 18 19 21 20 21 22 21 21 20 18 18 20 21 20 19 17 15 20 22
9 2 9 6 7 17 7 10 11 6 7 8 5 7 6 7 15 16 18 16 18 18 16 15 15 18 20 22 20 20 20 20 21 20 20 19 19 19 20 18 19 22 22 19 17 16 15 22 22
4 5 7 10 12 8 7 10 6 11 12 3 8 7 7 9 12 15 17 17 16 15 15 15 14 14 15 14 19 19 17 19 19 19 18 15 15 18 18 19 20 21 20 17 16 15 14 18 20
3 8 20 20 7 11 3 2 5 5 9 6 3 8 14 20 16 18 16 16 14 12 13 14 14 13 13 14 13 16 19 19 18 17 17 13 9 12 13 15 19 19 18 17 14 15 11 10 14
7 12 25 12 12 6 8 10 6 3 4 5 6 6 23 21 18 20 19 17 16 16 14 13 14 14 14 11 13 12 12 11 10 11 11 9 9 10 13 14 16 16 14 15 14 12 9 6 7
5 21 12 17 10 11 12 11 4 7 8 6 12 16 22 23 15 19 19 21 19 17 12 14 15 16 15 12 9 7 7 7 7 9 7 9 9 10 8 7 6 5 7 4 5 5 3 6 10
12 21 17 17 18 14 7 11 12 4 7 8 14 22 18 20 17 17 18 19 21 18 17 15 16 15 14 9 8 10 8 8 7 5 11 9 8 9 7 5 5 5 4 5 4 2 4 8 10
17 19 18 17 19 18 14 17 14 10 10 6 9 20 20 19 20 14 14 17 20 18 17 15 16 15 14 13 9 9 10 8 9 7 10 9 8 8 7 7 4 5 4 4 4 5 6 10 10
8 13 16 14 21 23 14 15 8 7 5 5 4 15 20 20 23 17 13 17 21 19 19 17 16 15 15 12 12 10 9 8 7 8 10 12 8 7 7 6 5 4 4 5 5 5 6 5 8
7 10 14 14 15 16 10 21 19 13 5 7 6 8 16 20 21 21 19 19 21 19 20 18 16 16 15 14 12 9 9 6 7 9 13 13 11 9 8 5 5 5 5 7 7 6 6 5 6
9 7 7 10 13 10 7 20 4 10 7 9 6 3 12 16 20 18 19 18 21 19 20 18 15 16 14 14 8 9 9 6 7 8 9 11 11 10 8 7 6 5 5 5 7 6 5 5 6
4 7 14 12 15 7 18 9 14 9 11 12 7 6 8 11 13 14 18 18 19 21 21 20 18 17 16 12 7 8 10 8 7 8 7 8 10 10 9 6 5 6 5 6 8 4 6 5 4
5 5 7 6 6 13 19 16 15 11 9 12 9 7 7 8 17 15 13 18 20 20 20 21 17 18 16 10 8 7 7 6 6 6 7 9 8 9 8 6 7 8 6 5 6 7 4 4 4
7 6 11 12 10 9 15 16 13 20 9 12 11 5 6 5 3 7 6 7 15 19 18 21 21 19 15 12 12 11 10 8 6 6 9 9 9 9 9 6 7 8 8 7 8 4 6 2 4
11 6 6 11 9 6 10 12 15 14 7 1 8 8 10 9 11 12 11 9 5 12 19 21 21 21 17 13 11 11 11 5 5 4 8 9 10 9 9 9 7 7 7 7 6 6 3 2 3
13 3 9 7 18 11 8 9 11 12 8 11 13 12 13 12 12 12 14 11 9 10 3 20 20 21 18 17 10 8 9 7 5 5 6 8 10 8 10 9 8 7 6 6 6 6 7 5 2
7 11 12 11 9 3 3 5 17 14 10 15 14 14 13 15 14 14 15 13 12 11 11 9 17 20 17 18 16 17 13 15 12 9 5 7 10 10 11 9 9 8 5 6 6 6 5 5 4
4 17 14 11 4 8 3 1 5 15 14 13 16 16 15 14 15 16 16 15 13 13 13 12 8 19 19 18 17 15 14 13 10 9 11 9 9 10 11 11 9 9 6 7 8 7 6 4 4
16 7 9 5 4 6 7 6 10 11 12 17 16 15 17 16 15 16 15 15 14 14 14 14 16 15 19 18 19 17 18 16 14 13 11 9 8 7 9 10 10 8 7 9 9 8 8 6 5
17 6 5 5 2 5 10 6 5 8 9 14 14 15 16 15 15 15 18 17 17 18 15 14 13 11 7 17 20 20 17 16 19 17 13 13 10 9 11 12 10 8 7 8 9 9 8 7 5
6 2 4 4 2 3 12 5 6 8 11 11 11 12 15 16 15 15 16 14 15 16 15 15 15 18 16 9 6 19 18 12 13 15 13 12 11 12 12 11 10 9 8 8 8 5 5 6 5
9 5 5 5 5 4 4 5 11 14 13 13 15 16 16 15 15 15 16 15 15 15 18 19 16 16 16 12 11 7 17 17 16 17 14 11 13 10 13 12 12 11 9 8 8 6 7 6 5
7 4 6 4 6 3 4 5 5 12 13 14 15 14 15 14 16 16 14 15 12 14 13 15 15 14 13 14 12 10 6 16 16 17 16 15 14 15 14 14 13 12 11 11 10 7 8 9 6
7 6 5 1 3 4 2 2 10 12 10 11 12 12 14 13 15 14 14 13 14 13 13 15 14 14 14 16 15 14 14 6 17 17 16 14 13 15 16 15 15 15 14 12 11 9 9 9 7
5 1 4 4 5 4 2 2 8 11 12 13 12 13 12 11 12 12 11 14 14 15 16 16 15 13 14 14 13 13 12 12 7 11 7 13 14 13 15 15 14 12 12 12 13 11 9 10 9
Wind_Direction
316 283 328 30 79 81 220 240 293 288 323 282 11 65 125 105 160 208 113 133 133 141 146 144 143 142 137 134 130 120 117 122 124 122 116 113 109 110 114 112 106 108 102 99 97 92 90 87 83
310 294 28 87 127 178 243 198 218 236 214 276 56 21 72 82 126 119 110 139 136 139 145 144 142 140 137 130 126 120 126 126 129 127 126 117 114 115 113 107 107 107 106 104 101 97 92 88 79
297 224 96 152 195 197 223 183 222 246 250 219 94 96 84 135 106 133 135 136 135 140 144 144 141 139 136 130 127 127 130 131 132 124 131 122 116 115 111 107 107 106 105 105 104 96 91 82 75
306 11 347 208 220 234 204 183 209 249 313 244 157 105 76 205 146 130 139 138 134 138 143 143 140 139 135 132 130 131 131 133 127 119 125 119 117 115 112 109 107 109 108 104 100 97 91 81 78
202 104 223 240 230 243 235 235 271 197 249 253 167 132 117 140 123 137 141 138 137 138 143 141 143 139 135 134 133 133 126 128 128 125 120 117 114 115 117 111 110 115 113 110 104 100 90 84 91
274 148 218 234 228 229 243 224 230 261 220 235 128 107 154 141 136 145 140 142 133 139 141 143 143 139 137 135 135 132 128 123 125 124 121 118 119 120 118 113 113 119 117 113 109 102 91 83 104
231 208 234 229 222 235 222 225 235 234 244 207 180 114 138 133 141 139 137 129 133 139 140 140 141 137 139 136 135 134 132 128 124 121 120 122 122 121 119 115 119 119 117 116 116 108 96 89 97
282 226 247 230 225 240 204 237 230 188 238 253 147 156 173 172 131 120 114 124 129 137 139 140 138 137 137 138 135 134 131 128 125 123 120 120 121 119 112 112 116 116 118 119 117 110 92 97 105
321 238 238 227 198 224 205 181 248 242 189 187 201 149 150 153 132 129 130 130 134 138 143 145 141 139 139 139 134 125 124 124 124 122 121 120 121 121 114 117 119 120 123 123 121 111 111 103 94
212 239 240 234 232 275 261 265 269 329 277 186 71 92 139 148 142 144 152 147 149 152 149 146 145 142 141 140 137 132 130 132 134 135 131 127 130 129 126 125 122 126 130 131 129 120 111 80 84
255 244 250 258 268 266 276 286 251 230 231 208 149 142 149 154 147 153 160 155 155 153 150 151 147 146 144 143 138 138 138 140 145 141 120 127 127 122 121 120 114 119 108 104 100 98 48 83 107
258 265 270 275 279 274 281 330 306 198 243 175 155 153 153 159 156 164 164 155 153 159 160 156 151 149 145 143 144 147 147 152 154 136 131 133 126 132 130 123 136 127 129 128 135 125 117 78 105
253 260 272 278 288 285 295 275 263 278 264 324 158 155 161 168 169 170 168 155 152 159 161 162 152 151 149 148 148 148 159 160 152 141 140 132 139 138 131 142 142 142 144 139 128 99 87 95 113
301 317 282 274 265 272 278 292 266 249 260 300 176 174 166 171 179 174 180 163 160 159 164 161 159 155 152 153 155 155 164 162 145 147 150 145 144 139 147 144 155 153 140 128 115 103 93 96 108
287 311 300 258 264 257 264 277 256 256 275 286 317 183 180 177 179 177 184 172 164 163 163 164 160 156 156 155 156 158 169 143 140 154 152 149 148 157 155 143 152 152 133 118 103 97 91 84 84
295 279 277 246 237 235 201 252 240 220 231 257 278 246 178 187 181 182 180 174 166 161 164 161 158 159 156 159 154 158 162 141 142 156 151 150 156 155 145 150 146 148 122 120 118 113 99 95 99
250 261 282 303 244 200 212 256 236 257 228 245 251 259 193 186 194 186 185 172 169 167 163 162 159 161 160 153 140 145 152 150 147 148 143 144 149 148 138 143 142 130 125 122 130 112 118 113 109
334 329 313 295 338 249 227 232 257 229 227 235 236 237 232 186 194 197 189 178 168 171 162 161 160 161 159 147 130 129 128 132 141 145 140 141 139 141 133 130 134 133 125 114 123 125 118 131 138
277 288 303 291 280 320 271 227 223 248 239 234 236 239 346 84 52 32 17 202 167 172 162 166 164 165 159 156 153 154 158 152 147 146 144 145 140 139 133 131 137 135 131 136 135 121 127 88 127
354 312 334 289 292 242 304 279 219 228 250 354 214 61 50 33 16 27 25 15 45 179 170 163 171 168 169 165 163 159 153 143 138 127 145 151 144 143 143 140 141 138 132 139 137 131 116 110 143
335 283 345 321 318 260 283 266 228 219 87 55 52 67 52 44 16 18 23 19 32 18 320 171 170 170 169 163 156 155 139 131 136 156 153 157 149 144 149 144 146 143 130 152 148 143 137 152 41
307 350 324 317 348 306 111 297 187 206 88 47 32 39 29 31 22 20 20 12 12 12 353 303 173 171 165 163 163 161 164 165 174 170 152 152 150 148 153 152 152 150 144 151 157 146 148 131 147
299 312 284 285 254 301 162 280 318 130 63 18 15 17 22 21 23 15 14 2 5 15 357 325 258 177 163 175 169 168 172 166 160 154 154 165 163 159 158 162 156 159 160 158 156 148 149 135 145
339 314 285 220 182 229 166 192 25 13 353 3 7 10 17 15 18 19 12 5 7 15 1 354 347 188 170 165 170 178 178 164 155 158 162 170 169 161 158 158 161 161 159 161 165 157 154 156 153
3 14 353 20 142 225 178 138 57 20 19 11 1 5 15 15 19 17 15 1 8 14 356 1 351 335 38 187 175 180 183 177 166 163 169 167 169 173 175 164 164 165 159 161 161 162 161 164 169
337 24 70 301 354 263 52 74 42 50 34 19 15 9 23 20 15 18 21 356 4 7 8 352 5 4 0 19 187 179 179 181 179 172 170 174 176 177 168 170 168 164 158 159 161 158 164 162 169
318 24 209 261 222 266 58 26 54 29 36 25 25 14 22 21 17 17 12 4 8 8 0 360 2 3 360 352 5 331 179 179 179 181 174 171 171 171 174 172 170 168 168 161 163 171 181 173 178
103 311 19 341 351 33 79 67 17 12 24 25 23 20 20 18 18 18 13 14 356 12 351 14 351 12 336 358 14 340 300 177 180 185 179 179 173 168 173 176 176 177 181 179 181 179 188 187 177
348 13 359 136 291 320 68 91 342 25 29 30 27 25 21 21 21 17 10 7 7 16 6 24 356 11 9 358 353 348 5 318 187 179 170 174 170 170 172 176 174 173 180 184 183 185 179 185 176
144 205 118 95 329 309 326 3 348 8 21 18 27 26 24 17 19 17 12 18 19 13 357 15 2 4 24 16 0 7 13 355 52 118 139 171 181 171 174 174 178 178 175 178 180 180 181 185 183